{"data":{"norad_id":60199,"intl_designator":"2024-124S","name":"STARLINK-32049","alt_names":[],"object_type":"PAYLOAD","status":"ACTIVE","operator":null,"country":"US","launch_date":"2024-07-03","launch_site_code":"AFETR","launch_vehicle":null,"mission":null,"orbit_class":"UNKNOWN","rcs_meters":null,"size_class":null,"mass_kg":null,"dimensions":null,"purposes":["comms"],"wikipedia_slug":null,"has_3d_model":false,"image_url":null,"decayed_at":null,"tle_current":{"epoch":"2026-05-24T22:08:48.763104Z","epoch_age_seconds":84832,"freshness":"FRESH","line1":"1 60199U 24124S   26144.92278661 -.00007639  00000+0 -21499-3 0  9990","line2":"2 60199  53.1626 327.9539 0000964  79.4581 280.6530 15.34427827107208","mean_motion":15.34427827,"eccentricity":9.64e-5,"inclination_deg":53.1626,"raan_deg":327.9539,"arg_perigee_deg":79.4581,"mean_anomaly_deg":280.653,"bstar":-0.00021499,"rev_number":10720,"period_min":93.846056142985,"perigee_km":461.96108472251,"apogee_km":463.27998277502,"semimajor_km":6840.7575337488,"source":"CELESTRAK","updated_at":"2026-05-25T13:38:19.196894Z"}}}